TimeAKDT,TemperatureF,Dew PointF,Humidity,Sea Level PressureIn,VisibilityMPH,Wind Direction,Wind SpeedMPH,Gust SpeedMPH,PrecipitationIn,Events,Conditions,WindDirDegrees,DateUTC
12:14 AM,57.2,55.4,94,30.04,10.0,NW,6.9,-,N/A,,Partly Cloudy,310,2013-06-21 08:14:00
12:53 AM,57.0,55.9,96,30.05,10.0,NNW,9.2,-,N/A,,Partly Cloudy,330,2013-06-21 08:53:00
1:06 AM,57.2,55.4,94,30.05,10.0,NNW,10.4,-,N/A,,Mostly Cloudy,330,2013-06-21 09:06:00
1:53 AM,57.0,55.9,96,30.05,10.0,NNW,6.9,-,N/A,,Overcast,330,2013-06-21 09:53:00
2:45 AM,55.4,55.4,100,30.05,10.0,NNW,5.8,-,N/A,,Overcast,340,2013-06-21 10:45:00
2:53 AM,55.9,55.9,100,30.05,10.0,NNW,6.9,-,N/A,,Overcast,340,2013-06-21 10:53:00
3:53 AM,55.9,55.9,100,30.04,10.0,NNW,6.9,-,N/A,,Overcast,330,2013-06-21 11:53:00
4:53 AM,55.9,55.9,100,30.05,7.0,NNW,6.9,-,N/A,,Overcast,330,2013-06-21 12:53:00
5:53 AM,55.0,55.0,100,30.06,8.0,NW,6.9,-,N/A,,Overcast,320,2013-06-21 13:53:00
6:53 AM,55.0,55.0,100,30.06,5.0,NW,5.8,-,N/A,,Overcast,320,2013-06-21 14:53:00
7:53 AM,55.0,55.0,100,30.06,9.0,NW,5.8,-,N/A,,Overcast,320,2013-06-21 15:53:00
8:53 AM,55.9,55.0,97,30.06,10.0,Calm,Calm,-,N/A,,Overcast,0,2013-06-21 16:53:00
9:53 AM,57.0,55.9,96,30.05,10.0,North,-9999.0,-,N/A,,Mostly Cloudy,0,2013-06-21 17:53:00
10:17 AM,59.0,55.4,88,30.05,10.0,Calm,Calm,-,N/A,,Mostly Cloudy,0,2013-06-21 18:17:00
10:53 AM,61.0,55.9,83,30.05,10.0,SSW,3.5,-,N/A,,Clear,200,2013-06-21 18:53:00
11:53 AM,62.1,57.0,84,30.04,10.0,SSW,8.1,-,N/A,,Clear,210,2013-06-21 19:53:00
12:53 PM,62.1,57.0,84,30.04,10.0,SW,4.6,-,N/A,,Clear,220,2013-06-21 20:53:00
1:53 PM,63.0,57.9,84,30.03,10.0,SW,8.1,-,N/A,,Clear,230,2013-06-21 21:53:00
2:53 PM,66.0,57.0,73,30.03,10.0,SW,6.9,-,N/A,,Clear,220,2013-06-21 22:53:00
3:53 PM,66.0,57.0,73,30.03,10.0,SW,6.9,-,N/A,,Clear,230,2013-06-21 23:53:00
4:53 PM,64.0,55.0,73,30.03,10.0,WSW,4.6,-,N/A,,Clear,250,2013-06-22 00:53:00
5:53 PM,64.0,55.9,75,30.02,10.0,West,5.8,-,N/A,,Partly Cloudy,260,2013-06-22 01:53:00
6:53 PM,63.0,55.0,75,30.01,10.0,WNW,8.1,-,N/A,,Partly Cloudy,300,2013-06-22 02:53:00
7:53 PM,63.0,55.9,78,30.01,10.0,WNW,8.1,-,N/A,,Partly Cloudy,300,2013-06-22 03:53:00
8:53 PM,61.0,55.0,81,30.02,10.0,NW,8.1,-,N/A,,Partly Cloudy,310,2013-06-22 04:53:00
9:53 PM,60.1,55.0,83,30.02,10.0,NW,6.9,-,N/A,,Overcast,310,2013-06-22 05:53:00
10:53 PM,59.0,55.9,90,30.01,10.0,NW,4.6,-,0.00,,Overcast,310,2013-06-22 06:53:00
11:53 PM,57.9,55.0,90,30.02,10.0,NW,11.5,-,N/A,,Overcast,310,2013-06-22 07:53:00